When you browse on this site, cookies collect data to enhance your experience and personalize the content and advertising you see.
Visit our Privacy Policy to learn more. By continuing to use the site, you agree to this use of cookies and data.
  • In Romania
  • List of Countries
  • For 7 days
  • Water Temperature
  • Satellite Maps
  • Weather Map
  • Weather Widgets
  • user-avatar
    Login

    Hourly Weather Jambol

    Today, 25 March, Monday

    Time Temperature Precipitation Wind Pressure Humidity
    00:00 +6°C° 0 mm 0 mps 753 mmHg 55%
    01:00 +6°C° 0 mm 1 mps 752 mmHg 57%
    02:00 +6°C° 0 mm 1 mps 752 mmHg 55%
    03:00 +6°C° 0 mm 1 mps 751 mmHg 57%
    04:00 +6°C° 0 mm 1 mps 751 mmHg 58%
    05:00 +6°C° 0 mm 1 mps 751 mmHg 59%
    06:00 +7°C° 0 mm 1 mps 750 mmHg 58%
    07:00 +8°C° 0 mm 1 mps 750 mmHg 56%
    08:00 +8°C° 0 mm 2 mps 750 mmHg 52%
    09:00 +10°C° 0 mm 2 mps 749 mmHg 47%
    10:00 +14°C° 0 mm 2 mps 749 mmHg 43%
    11:00 +16°C° 0 mm 3 mps 749 mmHg 38%
    12:00 +17°C° 0 mm 3 mps 748 mmHg 36%
    13:00 +18°C° 0 mm 3 mps 748 mmHg 35%
    14:00 +19°C° 0 mm 3 mps 747 mmHg 33%
    15:00 +19°C° 0 mm 3 mps 747 mmHg 36%
    16:00 +18°C° 0 mm 3 mps 746 mmHg 39%
    17:00 +18°C° 0 mm 4 mps 746 mmHg 42%
    18:00 +16°C° 0 mm 3 mps 746 mmHg 48%
    19:00 +13°C° 0 mm 2 mps 746 mmHg 53%
    20:00 +10°C° 0 mm 2 mps 745 mmHg 59%
    21:00 +10°C° 0 mm 2 mps 745 mmHg 60%
    22:00 +10°C° 0 mm 1 mps 745 mmHg 62%
    23:00 +9°C° 0 mm 1 mps 746 mmHg 63%

    Tomorrow, 26 March, Tuesday

    Time Temperature Precipitation Wind Pressure Humidity
    00:00 +9°C° 0 mm 1 mps 745 mmHg 64%
    01:00 +9°C° 0 mm 1 mps 745 mmHg 64%
    02:00 +8°C° 0 mm 1 mps 745 mmHg 65%
    03:00 +8°C° 0 mm 1 mps 745 mmHg 64%
    04:00 +8°C° 0 mm 1 mps 745 mmHg 64%
    05:00 +8°C° 0 mm 1 mps 745 mmHg 64%
    06:00 +9°C° 0 mm 1 mps 745 mmHg 61%
    07:00 +10°C° 0 mm 1 mps 746 mmHg 58%
    08:00 +11°C° 0 mm 1 mps 746 mmHg 55%
    09:00 +13°C° 0 mm 1 mps 747 mmHg 52%
    10:00 +16°C° 0 mm 1 mps 747 mmHg 49%
    11:00 +18°C° 0 mm 2 mps 747 mmHg 46%
    12:00 +18°C° 0 mm 3 mps 747 mmHg 48%
    13:00 +18°C° 0 mm 4 mps 747 mmHg 50%
    14:00 +17°C° 0 mm 5 mps 747 mmHg 52%
    15:00 +16°C° 0 mm 5 mps 747 mmHg 57%
    16:00 +14°C° 0 mm 6 mps 748 mmHg 62%
    17:00 +13°C° 0 mm 6 mps 748 mmHg 66%
    18:00 +12°C° 0 mm 5 mps 748 mmHg 70%
    19:00 +11°C° 0 mm 4 mps 749 mmHg 75%
    20:00 +10°C° 0 mm 3 mps 750 mmHg 79%
    21:00 +10°C° 0.1 mm 3 mps 750 mmHg 79%
    22:00 +10°C° 0.1 mm 3 mps 751 mmHg 80%
    23:00 +10°C° 0.1 mm 2 mps 751 mmHg 80%

    Day after tomorrow, 27 March, Wednesday

    Time Temperature Precipitation Wind Pressure Humidity
    00:00 +9°C° 0.1 mm 2 mps 751 mmHg 81%
    01:00 +9°C° 0.1 mm 2 mps 752 mmHg 83%
    02:00 +10°C° 0.1 mm 1 mps 752 mmHg 84%
    03:00 +9°C° 0 mm 1 mps 752 mmHg 84%
    04:00 +9°C° 0 mm 1 mps 752 mmHg 85%
    05:00 +9°C° 0 mm 1 mps 752 mmHg 85%
    06:00 +9°C° 0 mm 1 mps 753 mmHg 79%
    07:00 +10°C° 0 mm 1 mps 753 mmHg 73%
    08:00 +10°C° 0 mm 2 mps 753 mmHg 67%
    09:00 +10°C° 0 mm 2 mps 754 mmHg 63%
    10:00 +12°C° 0 mm 2 mps 754 mmHg 58%
    11:00 +13°C° 0 mm 2 mps 754 mmHg 54%
    12:00 +13°C° 0.1 mm 2 mps 754 mmHg 54%
    13:00 +14°C° 0.1 mm 2 mps 754 mmHg 55%
    14:00 +14°C° 0.1 mm 2 mps 754 mmHg 55%
    15:00 +13°C° 0.1 mm 3 mps 754 mmHg 58%
    16:00 +12°C° 0.1 mm 3 mps 754 mmHg 61%
    17:00 +12°C° 0.1 mm 4 mps 754 mmHg 64%
    18:00 +11°C° 0.1 mm 3 mps 755 mmHg 63%
    19:00 +10°C° 0.1 mm 3 mps 755 mmHg 63%
    20:00 +9°C° 0.1 mm 3 mps 756 mmHg 63%
    21:00 +8°C° 0 mm 2 mps 756 mmHg 67%
    22:00 +7°C° 0 mm 2 mps 756 mmHg 71%
    23:00 +7°C° 0 mm 2 mps 757 mmHg 76%

    28 March, Thursday

    Time Temperature Precipitation Wind Pressure Humidity
    00:00 +7°C° 0 mm 2 mps 757 mmHg 75%
    01:00 +7°C° 0 mm 2 mps 757 mmHg 75%
    02:00 +7°C° 0 mm 2 mps 757 mmHg 74%
    03:00 +7°C° 0 mm 3 mps 757 mmHg 73%
    04:00 +5°C° 0 mm 3 mps 757 mmHg 72%
    05:00 +5°C° 0 mm 3 mps 757 mmHg 71%
    06:00 +5°C° 0 mm 3 mps 758 mmHg 67%
    07:00 +6°C° 0 mm 4 mps 758 mmHg 62%
    08:00 +6°C° 0 mm 4 mps 758 mmHg 58%
    09:00 +7°C° 0 mm 4 mps 758 mmHg 53%
    10:00 +8°C° 0 mm 4 mps 759 mmHg 49%
    11:00 +9°C° 0 mm 5 mps 759 mmHg 45%
    12:00 +10°C° 0 mm 5 mps 758 mmHg 42%
    13:00 +12°C° 0 mm 5 mps 758 mmHg 40%
    14:00 +12°C° 0 mm 5 mps 758 mmHg 37%
    15:00 +12°C° 0 mm 5 mps 758 mmHg 39%
    16:00 +10°C° 0 mm 5 mps 758 mmHg 40%
    17:00 +9°C° 0 mm 6 mps 758 mmHg 42%
    18:00 +8°C° 0 mm 5 mps 758 mmHg 48%
    19:00 +6°C° 0 mm 4 mps 758 mmHg 55%
    20:00 +4°C° 0 mm 3 mps 759 mmHg 62%
    21:00 +4°C° 0 mm 3 mps 759 mmHg 65%
    22:00 +4°C° 0 mm 2 mps 760 mmHg 68%
    23:00 +3°C° 0 mm 2 mps 760 mmHg 71%

    29 March, Friday

    Time Temperature Precipitation Wind Pressure Humidity
    00:00 +3°C° 0 mm 2 mps 760 mmHg 72%
    01:00 +3°C° 0 mm 2 mps 760 mmHg 73%
    02:00 +2°C° 0 mm 2 mps 760 mmHg 74%
    03:00 +1°C° 0 mm 3 mps 760 mmHg 73%
    04:00 +1°C° 0 mm 3 mps 760 mmHg 72%
    05:00 0°C° 0 mm 3 mps 760 mmHg 71%
    06:00 +1°C° 0 mm 4 mps 760 mmHg 64%
    07:00 +2°C° 0 mm 5 mps 760 mmHg 56%
    08:00 +3°C° 0 mm 6 mps 761 mmHg 49%
    09:00 +4°C° 0 mm 6 mps 761 mmHg 46%
    10:00 +5°C° 0 mm 6 mps 761 mmHg 44%
    11:00 +8°C° 0 mm 6 mps 761 mmHg 42%
    12:00 +8°C° 0 mm 6 mps 760 mmHg 41%
    13:00 +9°C° 0 mm 7 mps 760 mmHg 39%
    14:00 +10°C° 0 mm 7 mps 759 mmHg 38%
    15:00 +9°C° 0 mm 6 mps 759 mmHg 39%
    16:00 +9°C° 0 mm 6 mps 759 mmHg 39%
    17:00 +9°C° 0 mm 6 mps 758 mmHg 40%
    18:00 +7°C° 0 mm 5 mps 759 mmHg 46%
    19:00 +5°C° 0 mm 4 mps 759 mmHg 51%
    20:00 +4°C° 0 mm 2 mps 759 mmHg 57%
    21:00 +4°C° 0 mm 2 mps 759 mmHg 58%
    22:00 +3°C° 0 mm 2 mps 759 mmHg 58%
    23:00 +3°C° 0 mm 1 mps 758 mmHg 59%

    30 March, Saturday

    Time Temperature Precipitation Wind Pressure Humidity
    00:00 +2°C° 0 mm 2 mps 758 mmHg 57%
    01:00 +2°C° 0 mm 2 mps 758 mmHg 54%
    02:00 +2°C° 0 mm 2 mps 758 mmHg 52%
    03:00 +1°C° 0 mm 3 mps 757 mmHg 51%
    04:00 +2°C° 0 mm 3 mps 757 mmHg 51%
    05:00 +1°C° 0 mm 4 mps 757 mmHg 50%
    06:00 +3°C° 0 mm 4 mps 757 mmHg 49%
    07:00 +5°C° 0 mm 5 mps 757 mmHg 47%
    08:00 +5°C° 0 mm 6 mps 757 mmHg 46%
    09:00 +8°C° 0 mm 7 mps 756 mmHg 47%
    10:00 +10°C° 0 mm 7 mps 756 mmHg 47%
    11:00 +11°C° 0 mm 8 mps 756 mmHg 48%
    12:00 +11°C° 0 mm 8 mps 755 mmHg 49%
    13:00 +12°C° 0 mm 8 mps 755 mmHg 50%
    14:00 +12°C° 0 mm 8 mps 754 mmHg 52%
    15:00 +12°C° 0 mm 7 mps 754 mmHg 54%
    16:00 +11°C° 0 mm 7 mps 754 mmHg 56%
    17:00 +11°C° 0 mm 6 mps 753 mmHg 57%
    18:00 +10°C° 0.1 mm 5 mps 753 mmHg 63%
    19:00 +10°C° 0.1 mm 4 mps 754 mmHg 69%
    20:00 +8°C° 0.1 mm 2 mps 754 mmHg 75%
    21:00 +7°C° 0 mm 2 mps 754 mmHg 78%
    22:00 +7°C° 0 mm 1 mps 753 mmHg 80%
    23:00 +6°C° 0 mm 1 mps 753 mmHg 83%
    Show more